SCP
0 0 0 0 0 0 0 0 1 0 0 0 0 0 0 1 1 1 1 1 1 1 0 0 0 0 0 0 0 0 0 0 0 0 0 0 0 0 0 0 0 0 0
0 0 0 0 0 0 0 0 0 0 0 0 0 1 1 1 1 1 1 1 1 1 0 0 0 0 0 0 0 0 0 0 0 0 0 0 0 0 0 0 0 0 0
0 0 0 0 0 0 0 0 0 0 0 0 0 0 1 1 1 1 1 1 0 0 0 0 0 0 0 0 0 0 0 0 0 0 0 0 0 0 0 0 0 0 0
0 0 0 1 1 0 0 0 0 0 0 0 0 0 0 0 0 0 0 0 0 0 0 0 0 0 0 0 0 0 0 0 0 0 0 0 0 0 0 0 0 0 0
0 0 0 1 1 1 0 0 0 0 0 0 0 0 0 0 0 0 0 0 0 0 0 0 0 0 0 0 0 0 0 0 0 0 0 0 0 0 0 0 0 0 0
0 0 0 1 1 1 1 0 0 0 0 0 0 0 0 0 0 0 0 0 0 0 0 0 0 0 0 0 0 0 0 0 0 0 0 0 0 0 0 0 0 0 0
0 0 0 1 1 1 1 1 1 1 0 0 0 0 0 0 0 0 0 0 0 0 0 0 0 0 0 0 0 0 0 0 0 0 0 0 0 0 0 0 0 0 0
0 0 0 1 1 1 1 1 1 1 1 1 1 1 1 1 0 0 0 0 0 0 0 0 0 0 0 0 0 0 0 0 0 0 0 0 0 0 0 0 0 0 0
0 0 1 1 1 1 1 1 1 1 1 1 1 1 1 1 1 1 0 0 0 0 0 0 0 0 0 0 0 0 0 0 0 0 0 0 0 0 0 0 0 0 0
0 0 1 1 1 1 1 1 1 1 1 1 1 1 1 1 1 0 0 0 0 0 0 0 0 0 0 0 0 0 0 0 0 0 0 0 0 0 0 0 0 0 0
0 0 0 1 1 1 1 1 1 1 1 1 1 0 0 0 0 0 0 0 0 0 0 0 0 0 0 0 0 0 0 0 0 0 0 0 0 0 0 0 0 0 0
0 0 0 1 1 1 1 1 1 1 1 1 0 0 0 0 0 0 0 0 0 0 0 0 0 0 0 0 0 0 0 0 0 0 0 0 0 0 0 0 0 0 0
0 0 0 0 1 1 1 1 1 1 1 1 0 0 0 0 0 0 0 0 0 0 0 0 0 0 0 0 0 0 0 0 0 0 0 0 0 0 0 0 0 0 0
0 0 0 0 0 1 1 1 1 1 1 1 1 0 0 0 0 0 0 0 0 0 0 0 0 0 0 0 0 0 0 0 0 0 0 0 0 0 0 0 0 0 0
0 0 0 0 0 0 0 1 1 1 1 1 0 0 0 0 0 0 0 0 0 0 0 0 0 0 0 0 0 0 0 0 0 0 0 0 0 0 0 0 0 0 0
0 0 0 0 0 0 0 0 0 0 0 0 0 0 0 0 0 0 0 0 0 0 0 0 0 0 0 0 0 0 0 0 0 0 0 0 0 0 0 0 0 0 0
0 0 0 0 0 0 0 0 0 0 0 0 0 0 0 0 0 0 0 0 0 0 0 0 0 0 0 0 0 0 0 0 0 0 0 0 0 0 0 0 0 0 0
0 0 0 0 0 0 0 0 0 0 0 0 0 0 0 0 0 0 0 0 0 0 0 0 0 0 0 0 0 0 0 0 0 0 0 0 0 0 0 0 0 0 0
0 0 0 0 0 0 0 0 0 0 0 0 0 0 0 0 0 0 0 0 0 0 0 0 0 0 0 0 0 0 0 0 0 0 0 0 0 0 0 0 0 0 0
0 0 0 0 0 0 0 0 0 0 0 0 0 0 0 0 0 0 0 0 0 0 0 0 0 0 0 0 0 0 0 0 0 0 0 0 0 0 0 0 0 0 0
0 0 0 0 0 0 0 0 0 0 0 0 0 0 0 0 0 0 0 0 0 0 0 0 0 0 0 0 0 0 0 0 0 0 0 0 0 0 0 0 0 0 0
0 0 0 0 0 0 0 0 0 0 0 0 0 0 0 0 0 0 0 0 0 0 0 0 0 0 0 0 0 0 0 0 0 0 0 0 0 0 0 0 0 0 0
0 0 0 0 0 0 0 0 0 0 0 0 0 0 0 0 0 0 0 0 0 0 0 0 0 0 0 0 0 0 0 0 0 0 0 0 0 0 0 0 0 0 0
0 0 0 0 0 0 0 0 0 0 0 0 0 0 0 0 0 0 0 0 0 0 0 0 0 0 0 0 0 0 0 0 0 0 0 0 0 0 0 0 0 0 0
0 0 0 0 0 0 0 0 0 0 0 0 0 0 0 0 0 0 0 0 0 0 0 0 0 0 0 0 0 0 0 0 0 0 0 0 0 0 0 0 0 0 0
0 0 0 0 0 0 0 0 0 0 0 0 0 0 0 0 0 0 0 0 0 0 0 0 0 0 0 0 0 0 0 0 0 0 0 0 0 0 0 0 0 0 0
Wind_Speed
6 9 14 15 15 15 15 14 14 13 12 12 11 11 10 10 9 9 9 10 12 12 12 11 10 10 10 10 10 10 10 10 11 11 11 12 13 13 13 11 9 7 11
9 13 15 14 15 15 14 14 14 13 13 12 11 10 9 9 9 9 10 11 11 11 10 9 9 9 9 8 8 8 9 9 9 8 8 9 11 12 13 12 11 8 13
10 12 14 14 14 14 14 13 13 13 13 12 12 11 10 9 9 10 10 10 10 9 9 8 7 7 7 7 7 7 7 8 7 5 4 3 6 11 12 12 12 12 13
12 11 12 14 15 15 14 14 13 13 13 13 12 11 11 11 10 10 9 9 9 8 7 6 6 6 6 6 6 6 7 8 7 3 2 2 4 10 11 11 11 12 12
10 10 11 14 15 15 15 14 14 13 13 12 12 12 12 11 10 9 8 8 7 7 6 5 5 5 5 5 5 6 7 8 8 7 4 4 3 10 11 10 10 11 11
9 9 11 15 15 15 15 15 14 14 13 12 12 12 12 11 10 9 8 7 6 6 5 5 5 4 4 4 5 6 8 9 8 6 5 4 3 9 10 9 9 9 9
9 8 10 15 15 15 15 15 14 13 13 12 12 12 12 11 10 8 8 7 6 5 5 5 4 4 3 4 4 6 8 8 6 5 5 4 4 8 8 7 7 7 7
9 8 9 14 14 14 14 14 14 13 12 11 12 12 12 12 10 9 8 7 7 6 6 5 4 4 3 4 4 6 7 7 6 6 5 4 5 6 6 5 5 5 5
7 8 8 10 11 13 14 13 13 12 12 11 12 12 12 11 10 9 8 8 8 7 7 6 6 4 4 4 5 7 8 9 5 3 4 3 3 4 4 3 3 3 4
4 6 8 9 9 9 10 13 13 13 12 11 12 12 12 11 10 9 8 8 9 8 8 8 7 5 4 4 5 6 8 8 5 4 3 3 3 3 2 2 2 2 3
4 5 7 9 9 8 8 10 11 12 12 12 11 13 11 7 7 6 8 9 9 9 9 9 8 6 5 3 4 6 6 3 4 3 2 3 2 1 2 1 2 2 3
7 7 7 9 9 8 7 6 6 6 6 7 6 8 6 5 5 6 9 10 9 9 11 11 9 7 4 1 2 4 2 3 2 2 1 2 1 1 3 3 3 4 4
8 6 8 9 9 9 7 6 5 4 4 5 7 7 6 5 4 4 3 4 5 7 5 7 6 3 2 2 1 1 2 2 1 1 0 1 1 2 4 4 5 5 5
6 8 8 9 9 10 8 6 6 5 5 5 6 8 6 4 4 4 3 3 3 3 4 3 3 4 3 3 3 2 2 2 2 1 1 1 2 3 5 6 6 6 7
5 7 7 8 9 9 8 6 6 6 6 6 5 7 7 6 5 4 4 3 4 3 4 4 4 4 4 3 3 4 3 3 3 2 1 2 3 5 6 8 8 8 8
8 7 5 6 8 8 7 7 6 6 5 5 5 6 7 5 5 5 5 4 4 4 4 4 5 4 3 3 3 4 4 4 3 3 2 1 1 3 6 8 9 10 9
11 10 7 4 4 6 7 6 4 4 5 5 5 6 7 6 6 6 5 5 4 4 4 3 3 2 2 2 3 3 3 4 4 4 3 2 1 2 2 6 9 10 10
12 12 12 8 2 2 3 3 3 3 4 4 4 5 7 7 7 6 5 5 5 4 4 4 3 2 2 2 2 2 2 3 4 4 3 3 2 1 1 3 5 9 11
12 13 14 13 9 4 2 3 3 2 2 2 2 3 4 6 7 6 5 5 6 5 4 4 3 3 3 2 2 2 2 3 3 3 4 4 4 3 1 2 3 4 8
12 14 15 15 14 8 5 5 4 5 3 3 1 1 3 3 5 5 4 5 6 5 4 4 4 3 2 2 1 2 3 4 3 4 4 3 4 4 4 3 2 2 6
16 17 17 17 16 11 6 4 4 4 4 5 5 4 2 1 2 3 2 4 5 5 6 6 4 4 2 3 2 2 3 4 5 4 4 3 4 5 5 5 3 3 3
15 15 16 17 16 14 8 4 3 3 4 5 6 8 8 5 4 2 1 1 3 3 4 5 4 3 3 4 4 1 3 4 5 5 4 5 6 4 5 6 5 5 4
15 15 14 15 16 15 13 8 6 6 6 8 9 8 10 9 8 6 4 2 0 2 3 5 5 6 5 4 3 4 4 6 4 3 5 5 5 5 5 5 7 7 6
11 10 13 14 16 15 13 12 13 10 8 7 6 7 9 11 10 9 7 5 2 1 2 3 4 4 4 4 4 3 3 2 2 4 3 3 5 7 7 7 7 7 7
9 10 10 13 15 14 14 14 12 11 7 6 7 11 10 10 11 12 9 7 5 3 3 3 3 4 4 5 5 4 4 3 3 3 5 4 3 6 7 8 6 7 8
8 9 10 12 13 12 13 13 13 12 11 11 11 10 8 7 8 12 11 8 7 5 4 4 4 4 5 6 5 5 4 4 4 5 7 5 5 5 5 6 8 8 7
Wind_Direction
195 176 182 173 164 158 153 148 145 142 139 135 129 123 117 111 107 109 110 108 100 93 85 78 73 70 69 68 68 67 64 69 69 74 78 77 74 72 70 62 57 61 70
167 170 174 173 167 162 157 152 150 148 146 142 137 132 127 121 116 114 111 107 102 95 88 81 76 73 72 71 68 65 62 62 60 59 67 78 82 78 71 63 61 61 63
154 168 170 171 169 165 160 157 155 154 153 150 146 143 139 133 125 120 114 109 105 99 93 87 81 79 76 73 66 58 55 53 43 43 74 80 89 87 78 68 62 59 58
158 166 171 171 171 168 165 163 162 162 161 159 157 154 150 144 137 129 121 114 109 104 101 98 91 83 74 68 60 50 46 41 33 67 105 104 97 96 86 77 70 64 59
158 166 171 171 173 173 171 169 169 169 170 169 167 163 157 150 143 136 129 125 122 120 121 117 105 89 74 61 51 44 42 48 64 76 85 85 86 100 93 86 78 70 63
160 166 170 173 176 177 176 176 176 176 177 177 175 170 163 155 149 144 141 137 137 138 139 131 115 96 79 62 48 45 49 70 78 72 69 68 77 100 98 92 84 76 68
162 169 172 175 178 180 181 182 182 183 184 183 181 176 168 161 158 156 156 156 156 156 153 141 124 106 90 72 57 51 52 80 89 77 66 56 76 94 93 87 83 76 68
163 170 174 179 180 182 184 186 186 187 188 189 187 179 172 166 167 168 170 172 174 171 163 152 138 121 101 85 73 57 55 81 93 83 67 50 83 89 86 81 80 76 68
165 169 177 184 185 185 186 188 189 190 191 193 189 180 170 167 169 171 177 182 184 181 173 160 150 137 114 92 75 56 61 87 92 81 67 40 76 93 87 77 79 85 83
182 179 182 185 188 189 191 192 191 192 194 195 190 177 167 167 169 171 174 183 190 189 178 167 161 150 127 105 80 59 70 80 82 75 53 30 59 101 103 94 92 101 99
213 202 189 189 191 190 191 196 196 196 198 196 188 174 166 165 164 168 175 184 190 187 178 173 169 154 132 109 77 67 75 81 91 77 46 31 64 136 144 149 153 135 117
221 212 197 194 194 192 195 192 195 196 198 192 177 172 166 161 165 169 183 187 190 182 178 178 172 153 129 92 40 58 66 93 98 100 54 45 39 210 185 183 180 159 138
226 216 203 198 195 193 197 192 193 192 189 186 178 172 165 162 165 168 173 189 190 178 172 172 157 145 151 161 145 99 99 104 125 127 337 26 323 248 199 189 183 169 155
249 238 220 202 195 196 195 195 193 195 195 193 186 176 170 170 170 170 178 183 180 168 163 153 151 165 180 193 187 168 144 144 159 168 254 263 275 258 215 194 187 181 172
292 271 246 215 204 196 192 193 192 196 198 194 185 184 180 177 175 173 181 183 183 172 169 166 167 174 184 189 188 176 169 169 177 186 244 261 257 251 225 203 194 188 174
337 316 283 234 216 198 193 193 191 189 185 184 188 188 185 180 175 173 176 184 190 185 178 174 178 179 188 190 197 190 186 183 186 188 204 261 285 262 231 211 197 185 176
346 343 337 287 224 203 198 192 180 176 176 184 188 188 188 184 179 176 176 185 190 180 171 167 176 171 188 199 208 204 198 199 194 192 194 205 266 313 250 215 199 191 186
2 2 2 2 359 211 194 178 160 159 168 180 182 186 188 186 180 176 179 186 177 168 166 169 171 186 214 218 223 231 223 217 210 200 192 194 201 249 267 193 190 194 192
12 13 15 16 17 22 61 81 88 96 123 153 164 177 185 183 180 178 182 178 169 170 173 172 166 170 200 229 247 265 269 253 236 219 202 196 195 192 198 174 163 186 195
22 26 25 24 21 22 41 53 53 52 43 46 69 160 176 176 176 174 173 170 166 168 174 176 169 167 167 174 214 284 286 275 265 245 224 206 200 195 192 188 181 201 205
31 31 29 29 22 24 26 30 38 37 26 28 26 28 41 100 149 160 162 166 172 184 189 183 160 172 168 132 117 308 297 273 259 248 236 221 213 204 195 197 199 208 222
35 32 33 31 28 27 24 21 36 43 36 29 28 29 26 29 39 60 112 167 185 189 184 179 167 163 178 164 152 157 289 298 257 234 228 222 218 207 207 205 203 207 214
36 32 36 36 35 31 28 31 31 32 29 23 18 18 17 22 25 27 29 33 221 207 208 203 193 184 197 204 184 169 196 246 292 278 241 230 218 216 216 209 209 210 210
34 33 40 41 41 37 37 43 49 48 41 21 12 17 17 21 21 19 17 17 9 320 268 236 217 214 201 211 221 224 209 203 250 303 300 264 237 231 224 219 214 213 210
34 37 39 44 44 40 44 45 49 47 38 25 26 25 20 18 21 17 12 9 2 343 305 282 251 234 225 222 212 211 219 215 199 226 281 294 277 243 228 222 217 215 213
40 41 41 48 45 40 44 46 48 45 38 35 28 23 17 11 13 12 8 7 360 350 326 296 271 253 246 246 240 226 220 220 213 210 243 250 254 260 239 225 223 222 216